Regional Weather Roundup
Issued by NWS Portland, ME

Home | Current Version | Previous Version | Text Only | Print | Product List | Glossary On
Versions: 1 2 3 4 5 6 7 8 9 10 11 12 13 14 15 16 17 18 19 20 21 22 23 24 25 26 27 28 29 30 31 32 33 34 35 36 37 38 39 40 41 42 43 44 45 46 47 48 49 50
121
ASUS41 KGYX 230010
RWRGYX
WEATHER ROUNDUP FOR MAINE AND NEW HAMPSHIRE
NATIONAL WEATHER SERVICE GRAY ME
800 PM EDT WED MAR 22 2017

MEZ002-005-006-010-012-015-018-020-021-024-026-027-029-230100-
MAINE

CITY           SKY/WX    TMP DP  RH WIND       PRES   REMARKS
PORTLAND       CLEAR     17  -5  37 NW23G33   30.14R WCI  -1
6HR MIN TEMP:  17; 6HR MAX TEMP:  27;

SANFORD        CLEAR     15  -3  44 NW13      30.15R WCI   1
BAR HARBOR     PTCLDY    18   1  47 NW17G29   29.97R WCI   3
WISCASSET      CLEAR     17  -5  37 NW14G24   30.11R WCI   3
6HR MIN TEMP:  17; 6HR MAX TEMP:  26;

ROCKLAND       CLEAR     17  -3  41 NW10G25   30.05R WCI   5
FRYEBURG       CLEAR     15  -9  33 W12       30.14R WCI   2
6HR MIN TEMP:  14; 6HR MAX TEMP:  22;

LEWISTONAUBURN CLEAR     14  -5  42 NW16G29   30.12R WCI  -2
AUGUSTA        CLEAR     14  -8  37 NW21G35   30.10R WCI  -4
6HR MIN TEMP:  14; 6HR MAX TEMP:  22;

WATERVILLE     CLEAR     14  -6  40 NW18G30   30.06R WCI  -3
BANGOR         PTCLDY    17  -2  43 NW26G39   30.01R WCI  -2
6HR MIN TEMP:  17; 6HR MAX TEMP:  20; 6HR PCP: TRACE;

GREENVILLE       N/A      8  -5  55 NW18G39   29.93R WCI -11
6HR MIN TEMP:   8; 6HR MAX TEMP:  13;

MILLINOCKET    CLEAR     15  -5  40 NW15G30   30.01R WCI   0
6HR MIN TEMP:  15; 6HR MAX TEMP:  22;

HOULTON        CLOUDY    15  -2  46 N24G35    29.94R WCI  -4
6HR MIN TEMP:  15; 6HR MAX TEMP:  22; 6HR PCP: TRACE;

PRESQUE ISLE   CLOUDY    13  -1  54 NW25G31   30.00R WCI  -7
6HR MIN TEMP:  13; 6HR MAX TEMP:  18; 6HR PCP: TRACE;

FRENCHVILLE    PTCLDY    10  -9  42 NW22G32   29.97R WCI -10
6HR MIN TEMP:  10; 6HR MAX TEMP:  16; 6HR PCP: TRACE;

CARIBOU        CLOUDY    13  -5  44 NW23      29.97R WCI  -6
6HR MIN TEMP:  13; 6HR MAX TEMP:  18; 6HR PCP: TRACE;

$$

NHZ002-005-008-009-011-012-014-230100-
NEW HAMPSHIRE

CITY           SKY/WX    TMP DP  RH WIND       PRES   REMARKS
PORTSMOUTH     CLEAR     17  -6  36 NW21G35   30.16R WCI   0
ROCHESTER      CLEAR     15  -6  39 NW22G37   30.14R WCI  -3
6HR MIN TEMP:  15; 6HR MAX TEMP:  23;

NASHUA         CLEAR     20  -5  33 NW23G30   30.22R WCI   3
MANCHESTER     CLEAR     18  -8  31 NW23G37   30.21R WCI   0
6HR MIN TEMP:  18; 6HR MAX TEMP:  25;

CONCORD        CLEAR     16  -5  39 NW28G39   30.21R WCI  -4
6HR MIN TEMP:  16; 6HR MAX TEMP:  23;

LACONIA        CLEAR     13  -4  46 NW13G22   30.21R WCI  -2
PLYMOUTH       FAIR      14  -4  44 NW17G24   30.23R WCI  -3
BERLIN         PTCLDY    11  -8  42 NW9G23    30.16R
6HR MIN TEMP:  11; 6HR MAX TEMP:  14;

WHITEFIELD     PTCLDY    11  -6  46 VRB7      30.22R
6HR MIN TEMP:  11; 6HR MAX TEMP:  14;

JAFFREY        CLEAR     16 -11  29 NW15G28   30.19R WCI   1
6HR MIN TEMP:  16; 6HR MAX TEMP:  22;

KEENE          CLEAR     18  -6  34 N20G28    30.26R WCI   2
LEBANON        CLEAR     15  -5  40 N14G30    30.26R WCI   0
6HR MIN TEMP:  15; 6HR MAX TEMP:  19;

MT WASHINGTON  BLWGSNOW -15 -15 100 NW82G89     N/A  VSB 1/16WCI -58
6HR MIN TEMP: -16; 6HR MAX TEMP: -13;

$$

VTZ005-007-008-230100-
VERMONT

CITY           SKY/WX    TMP DP  RH WIND       PRES   REMARKS
ST JOHNSBURY     N/A     12  -4  48 MISG      30.25R
MONTPELIER     CLEAR     10  -6  48 CALM      30.30R
BURLINGTON     CLEAR     16  -3  43 NW12      30.37R WCI   3
$$

MAZ007-012-024-CTZ003-RIZ002-NYZ038-NYZ072-230100-
SOUTHERN NEW ENGLAND AND NY

CITY           SKY/WX    TMP DP  RH WIND       PRES   REMARKS
BOSTON         CLEAR     23  -7  26 NW26G35   30.19R WCI   6
WORCESTER      CLEAR     19 -10  27 NW26G36   30.16R WCI   1
NANTUCKET      CLEAR     27  -2  28 NW25G38   30.13R WCI  12
PROVIDENCE     CLEAR     26  -7  23 NW22G31   30.20R WCI  12
HARTFORD       CLEAR     24  -6  26 NW21G32   30.28R WCI   9
ALBANY         CLEAR     22  -4  32 NW15G22   30.37R WCI   9
NEW YORK CITY  CLEAR     31  -2  24 N23G30    30.34R WCI  18
$$

ANZ081-ANZ082-ANZ150-NHZ014-MEZ023>029-230100-
COASTAL MARINE OBSERVATIONS

STATION/POSITION TIME  TEMP    WIND        PRES    WAVE
                       AIR SEA DIR/SP/G            HT/PER
                 (UTC) (F)     (DEG/KT/KT) (MB)    (FT/S)
MOUNT DESERT ROC 0000   22                 1014.0R
MATINICUS ROCK   0000   20     320/ 38/ 43 1016.0R
ISLE OF SHOALS   0000   18     300/ 34/ 38 1020.3R
JEFFREYS LEDGE   2336      42                N/A    10/ 7
CASHES LEDGE BUO 2250   23 39              1015.3   10/ 7
GEORGES BANK BUO 2250   33 42              1011.3   10/ 8
$$

.............KEY..............
   WCI - WIND CHILL
   TC  - TEMPERATURE IN CELSIUS
   VSB - VISIBILITY IN MILES
   HX  - HEAT INDEX
   FAIR- INDICATES FEW OR NO CLOUDS BELOW 12,000 FT, WITH NO
         SIGNIFICANT WEATHER AND/OR OBSTRUCTIONS TO VISIBILITY.






USA.gov is the U.S. government's official web portal to all federal, state and local government web resources and services.